Total_Precipitation_Accumulation
0.00 0.00 0.00 0.00 0.00 0.00 0.00 0.00 0.00 0.00 0.00 0.00 0.00 0.00 0.00 0.00 0.00 0.00 0.00 0.00 0.00 0.00 0.00 0.00 0.00 0.00 0.01 0.02 0.05 0.10 0.15 0.17 0.19 0.23 0.26 0.24 0.23 0.21
0.00 0.00 0.00 0.00 0.00 0.00 0.00 0.00 0.00 0.00 0.00 0.00 0.00 0.00 0.00 0.00 0.00 0.00 0.00 0.00 0.00 0.00 0.00 0.00 0.01 0.03 0.03 0.03 0.05 0.06 0.07 0.11 0.15 0.19 0.25 0.31 0.31 0.29
0.00 0.00 0.00 0.00 0.00 0.00 0.00 0.00 0.00 0.00 0.00 0.00 0.00 0.00 0.00 0.00 0.00 0.00 0.00 0.00 0.00 0.00 0.01 0.01 0.01 0.01 0.01 0.01 0.02 0.03 0.07 0.10 0.12 0.16 0.19 0.24 0.31 0.34
0.00 0.00 0.00 0.00 0.00 0.00 0.00 0.00 0.00 0.00 0.00 0.03 0.00 0.00 0.00 0.00 0.00 0.00 0.00 0.01 0.01 0.00 0.00 0.00 0.00 0.00 0.01 0.01 0.02 0.04 0.05 0.05 0.06 0.10 0.13 0.15 0.16 0.18
0.00 0.00 0.00 0.00 0.00 0.00 0.00 0.00 0.00 0.00 0.01 0.02 0.00 0.00 0.00 0.01 0.01 0.00 0.00 0.00 0.00 0.00 0.00 0.00 0.00 0.00 0.01 0.01 0.02 0.04 0.08 0.09 0.09 0.08 0.10 0.12 0.15 0.18
0.00 0.00 0.00 0.00 0.00 0.00 0.00 0.00 0.00 0.00 0.00 0.01 0.09 0.10 0.06 0.02 0.02 0.00 0.00 0.00 0.00 0.00 0.00 0.00 0.00 0.00 0.00 0.00 0.00 0.00 0.01 0.02 0.02 0.03 0.03 0.05 0.07 0.09
0.00 0.00 0.00 0.00 0.00 0.00 0.01 0.01 0.01 0.02 0.11 0.25 0.23 0.14 0.07 0.01 0.00 0.00 0.00 0.01 0.01 0.00 0.00 0.00 0.00 0.00 0.00 0.00 0.00 0.00 0.00 0.01 0.01 0.03 0.05 0.07 0.09 0.11
0.00 0.00 0.00 0.00 0.00 0.00 0.01 0.02 0.03 0.13 0.28 0.27 0.20 0.08 0.01 0.00 0.00 0.04 0.10 0.10 0.07 0.00 0.00 0.01 0.00 0.00 0.00 0.00 0.00 0.00 0.01 0.01 0.02 0.05 0.09 0.14 0.15 0.17
0.00 0.00 0.00 0.00 0.00 0.00 0.00 0.03 0.10 0.15 0.14 0.07 0.02 0.00 0.00 0.04 0.20 0.19 0.10 0.08 0.07 0.01 0.01 0.02 0.00 0.00 0.00 0.00 0.00 0.00 0.01 0.02 0.02 0.04 0.07 0.10 0.12 0.14
0.00 0.00 0.00 0.00 0.00 0.01 0.05 0.19 0.12 0.03 0.00 0.00 0.00 0.01 0.07 0.08 0.08 0.16 0.14 0.08 0.02 0.00 0.00 0.06 0.00 0.00 0.00 0.00 0.00 0.00 0.00 0.01 0.02 0.05 0.07 0.09 0.11 0.14
0.00 0.00 0.01 0.01 0.00 0.04 0.12 0.09 0.01 0.00 0.00 0.01 0.04 0.03 0.01 0.00 0.00 0.17 0.12 0.11 0.05 0.00 0.00 0.04 0.02 0.00 0.00 0.00 0.00 0.00 0.00 0.01 0.02 0.05 0.08 0.13 0.17 0.19
0.00 0.00 0.00 0.00 0.03 0.10 0.05 0.01 0.00 0.01 0.12 0.05 0.01 0.00 0.00 0.00 0.00 0.04 0.16 0.36 0.13 0.14 0.00 0.21 0.09 0.06 0.23 0.01 0.00 0.00 0.00 0.00 0.00 0.01 0.03 0.07 0.09 0.12
0.00 0.00 0.00 0.03 0.07 0.03 0.02 0.00 0.01 0.04 0.04 0.00 0.00 0.00 0.00 0.00 0.00 0.01 0.06 0.33 0.43 0.28 0.01 0.42 0.42 0.06 0.22 0.07 0.00 0.00 0.00 0.01 0.03 0.02 0.02 0.04 0.09 0.15
0.00 0.00 0.01 0.05 0.01 0.00 0.00 0.01 0.03 0.02 0.00 0.00 0.00 0.00 0.00 0.01 0.01 0.01 0.02 0.04 0.13 0.32 0.12 0.21 0.59 0.25 0.38 0.18 0.03 0.00 0.00 0.02 0.15 0.11 0.09 0.09 0.14 0.18
0.01 0.02 0.01 0.00 0.00 0.00 0.00 0.00 0.00 0.00 0.01 0.03 0.02 0.01 0.01 0.01 0.01 0.01 0.01 0.01 0.02 0.03 0.07 0.06 0.28 0.27 0.32 0.35 0.28 0.05 0.11 0.04 0.11 0.25 0.26 0.22 0.20 0.17
0.01 0.00 0.00 0.00 0.00 0.00 0.00 0.00 0.00 0.00 0.03 0.06 0.05 0.01 0.01 0.01 0.01 0.02 0.05 0.03 0.05 0.00 0.00 0.02 0.14 0.31 0.35 0.14 0.35 0.18 0.08 0.40 0.29 0.35 0.44 0.21 0.14 0.11
0.01 0.00 0.00 0.00 0.00 0.00 0.00 0.00 0.00 0.00 0.01 0.02 0.04 0.04 0.02 0.01 0.01 0.01 0.04 0.08 0.09 0.04 0.02 0.00 0.00 0.03 0.10 0.15 0.17 0.15 0.34 0.25 0.33 0.53 0.50 0.20 0.06 0.04
0.00 0.00 0.00 0.00 0.00 0.00 0.00 0.00 0.00 0.01 0.02 0.04 0.04 0.03 0.06 0.04 0.05 0.02 0.02 0.06 0.08 0.04 0.04 0.02 0.02 0.04 0.01 0.00 0.17 0.38 0.27 0.30 0.39 0.52 0.48 0.24 0.13 0.07
0.00 0.00 0.00 0.00 0.00 0.01 0.01 0.02 0.02 0.01 0.02 0.05 0.05 0.07 0.12 0.08 0.03 0.03 0.03 0.04 0.03 0.03 0.02 0.04 0.08 0.15 0.16 0.04 0.01 0.20 0.54 0.42 0.31 0.36 0.37 0.33 0.30 0.19
0.00 0.00 0.01 0.01 0.01 0.02 0.02 0.04 0.04 0.02 0.02 0.03 0.09 0.10 0.12 0.16 0.06 0.06 0.05 0.11 0.12 0.07 0.02 0.02 0.04 0.16 0.43 0.46 0.37 0.28 0.36 0.53 0.47 0.46 0.38 0.28 0.34 0.23
0.00 0.00 0.00 0.01 0.02 0.03 0.03 0.04 0.05 0.08 0.13 0.18 0.10 0.11 0.11 0.21 0.11 0.04 0.06 0.05 0.08 0.07 0.06 0.02 0.08 0.19 0.20 0.09 0.10 0.14 0.26 0.40 0.46 0.65 0.47 0.29 0.24 0.13
0.00 0.01 0.00 0.01 0.02 0.05 0.06 0.05 0.06 0.03 0.09 0.10 0.09 0.13 0.14 0.17 0.21 0.16 0.09 0.13 0.06 0.07 0.06 0.03 0.03 0.04 0.03 0.08 0.15 0.19 0.24 0.23 0.23 0.27 0.38 0.44 0.53 0.66
0.01 0.02 0.01 0.02 0.03 0.04 0.06 0.05 0.05 0.05 0.10 0.16 0.13 0.14 0.18 0.20 0.12 0.13 0.10 0.09 0.10 0.11 0.04 0.02 0.02 0.03 0.04 0.07 0.10 0.14 0.12 0.17 0.11 0.15 0.45 0.45 0.44 0.53